Location: Young's Pond
(41.2695°N, 72.7766°W)
Time: 18:32:40
(UTC-04:00)

Spot 4 - Visible Passes

Search period start: 30 May 2015 00:00
Search period end: 09 June 2015 00:00
Orbit: 705 x 725 km, 98.4° (Epoch: 29 May)

Date Brightness Start Highest point End Pass type
(mag) Time Alt. Az. Time Alt. Az. Time Alt. Az.
30 May 5.0 21:44:03 18° ESE 21:46:32 29° ENE 21:50:38 10° N visible
30 May 5.1 23:23:12 26° SW 23:24:29 30° W 23:28:39 10° NW visible
31 May 3.7 22:31:11 39° SSE 22:32:57 82° ENE 22:37:45 10° NNW visible
01 Jun 6.4 00:11:20 10° W 00:11:41 10° W 00:11:41 10° W visible
01 Jun 5.1 21:39:11 16° ESE 21:41:49 26° ENE 21:45:47 10° N visible
01 Jun 5.0 23:18:19 28° SW 23:19:42 34° W 23:24:01 10° NNW visible
02 Jun 3.8 22:26:19 36° SSE 22:28:13 73° ENE 22:33:00 10° N visible
03 Jun 6.3 00:05:27 11° WSW 00:06:51 11° W 00:08:17 10° WNW visible
03 Jun 5.3 21:34:18 14° ESE 21:37:07 23° ENE 21:40:55 10° NNE visible
03 Jun 4.8 23:13:27 30° SW 23:14:55 38° W 23:19:21 10° NNW visible
04 Jun 3.9 22:21:26 33° SE 22:23:30 65° ENE 22:28:14 10° N visible
05 Jun 6.1 00:00:35 12° WSW 00:02:02 13° W 00:04:06 10° WNW visible
05 Jun 5.4 21:29:26 12° ESE 21:32:24 21° ENE 21:36:01 10° NNE visible
05 Jun 4.7 23:08:35 32° SW 23:10:10 42° W 23:14:41 10° NNW visible
06 Jun 4.0 22:16:34 30° SE 22:18:46 58° ENE 22:23:28 10° N visible
06 Jun 6.0 23:55:43 13° WSW 23:57:13 15° W 23:59:45 10° WNW visible
07 Jun 5.5 21:24:34 11° ESE 21:27:42 19° ENE 21:31:07 10° NNE visible
07 Jun 4.5 23:03:43 33° SSW 23:05:23 47° W 23:10:00 10° NNW visible
08 Jun 4.2 22:11:42 27° SE 22:14:01 52° ENE 22:18:41 10° N visible
08 Jun 5.9 23:50:51 15° WSW 23:52:24 16° W 23:55:18 10° NW visible
